Regional Weather Roundup
Issued by NWS

Home | Current Version | Previous Version | Graphics & Text | Print | Product List | Glossary On
Versions: 1 2 3 4 5 6 7 8 9 10 11 12 13 14 15 16 17 18 19 20 21 22 23 24 25 26 27 28 29 30 31 32 33 34 35 36 37 38 39 40 41 42 43 44 45 46 47 48 49 50
159
ASUS45 KBOU 230607
RWRCO

WEATHER ROUNDUP FOR COLORADO
NATIONAL WEATHER SERVICE DENVER/BOULDER CO
1100 PM MST SUN JAN 22 2017

NOTE: "FAIR" INDICATES FEW OR NO CLOUDS BELOW 12000 FEET WITH NO
SIGNIFICANT WEATHER AND/OR OBSTRUCTIONS TO VISIBILITY.

COZ001>005-013-030-031-230700-
...NORTHWEST COLORADO...

CITY           SKY/WX    TMP DP  RH WIND       PRES   REMARKS
CRAIG          CLOUDY    27  20  75 NE10      29.82S WCI  17
HAYDEN         CLOUDY    25  18  74 SE8       29.79F WCI  16
MEEKER         CLOUDY    31  22  69 SW13      29.83S WCI  21
MOUNT WERNER   NOT AVBL
STEAMBOAT SPGS CLOUDY    22  19  91 W6        29.80S WCI  14
WALDEN           N/A     23  14  68 S5        29.80S WCI  17
$$

COZ006>008-011-230700-
...WEST CENTRAL VALLEYS...

CITY           SKY/WX    TMP DP  RH WIND       PRES   REMARKS
GRAND JUNCTION CLOUDY    33  30  88 SE16G25   29.88F WCI  23
MONTROSE       FLURRIES  29  28  96 CALM      29.98F
EAGLE          LGT SNOW  25  24  96 E8        29.89F VSB 1   WCI  16
RIFLE          CLOUDY    29  28  96 N3        29.90F
DELTA          FLURRIES  32  31  95 E7        29.98F WCI  26
NUCLA          LGT SNOW  30  28  93 CALM      30.03F
$$

COZ017>023-064>068-230700-
...SOUTHWEST COLORADO...

CITY           SKY/WX    TMP DP  RH WIND       PRES   REMARKS
DURANGO        LGT SNOW  24  21  88 E5        30.08F FOG     WCI  18
CORTEZ         LGT SNOW  30  24  78 VRB3      30.04F
PAGOSA SPRINGS LGT SNOW  23  23  99 CALM      30.09S
TELLURIDE      NOT AVBL
WOLF CREEK PAS CLOUDY     9   7  92 S28G37    29.98S WCI -13
$$

COZ009-010-012-014-032>034-037-058>063-230700-
...CENTRAL COLORADO...

CITY           SKY/WX    TMP DP  RH WIND       PRES   REMARKS
ASPEN          LGT SNOW  22  21  96 CALM      29.88R VSB 3/4
BUENA VISTA    LGT SNOW  25  18  75 SE15      29.90R WCI  13
COPPER MTN     SNOW      25  19  80 MISG      29.83R VSB 1/2
BERTHOUD PASS  CLOUDY    16   5  62 MISG      29.79S
COTTONWOOD PAS LGT SNOW  23  19  86 NW5       29.88R WCI  17
GUNNISON       LGT SNOW  19  17  92 N5        30.00R FOG     WCI  12
KREMMLING      CLOUDY    27  21  80 E3        29.86F
LEADVILLE      LGT SNOW  16  13  88 CALM      29.86R VSB 1
MONARCH PASS   CLOUDY    12   9  85 SW29G40   29.96S WCI  -9
SALIDA         CLOUDY    31  16  54 S12G28    29.98R WCI  22
SUNLIGHT       CLOUDY    16  14  93 SW24G37   29.83F WCI  -3
WILKERSON PASS CLOUDY    14  12  92 SW20G26   29.87R WCI  -3
$$

COZ069>075-230700-
...SAN LUIS VALLEY/SANGRE DE CRISTO MOUNTAINS...

CITY           SKY/WX    TMP DP  RH WIND       PRES   REMARKS
ALAMOSA        CLOUDY    23  14  68 S5        29.97F WCI  17
LA VETA PASS   LGT SNOW  18  14  86 NE26G35   29.91R VSB 1   WCI  -1
SAGUACHE       CLOUDY    25  18  74 SE9       29.99F WCI  15
$$

COZ035-036-038>040-230700-
...NORTHERN COLORADO FRONT RANGE...

CITY           SKY/WX    TMP DP  RH WIND       PRES   REMARKS
DENVER INTL AP CLOUDY    33  19  56 S8        29.76F WCI  26
DMNS CITY PARK   N/A     35  10  35 E7        29.77F WCI  29
AURORA         NOT AVBL
FRONT RANGE AP CLOUDY    36  21  55 S10       29.77F
ERIE MUNI ARPT FAIR      31  21  65 CALM      29.77F
BOULDER MUN AP FAIR      32  18  55 CALM      29.77F
CENTENNIAL     MOCLDY    36  16  44 S12       29.76F
BROOMFIELD     FAIR      32  16  51 W3        29.76F
FORT COLLINS   MOCLDY    34  16  47 CALM      29.79F
LONGMONT       FAIR      34  20  56 CALM      29.79F
$$

COZ041-046-047-076>085-087-088-230700-
...PIKES PEAK/PALMER DIVIDE AND SOUTHERN FOOTHILLS...

CITY           SKY/WX    TMP DP  RH WIND       PRES   REMARKS
COLO. SPRINGS  MOCLDY    28  15  58 E9        29.82F WCI  19
A. F. ACADEMY  FAIR      27  12  52 S3        29.81F
SCHRIEVER AFB  NOT AVBL
ELLICOTT       FAIR     N/A N/A N/A SE9       29.82F
FALCON         FAIR      26  14  59 CALM      29.83F
FORT CARSON    NOT AVBL
LIMON          FAIR      25  20  81 SE9       29.83F WCI  15
MONUMENT HILL  FAIR      28  12  50 S14       29.81F WCI  17
TRINIDAD       FAIR      24  12  60 NW5       29.87F WCI  18
$$

COZ042>045-048>051-090-091-230700-
...NORTHEAST COLORADO...

CITY           SKY/WX    TMP DP  RH WIND       PRES   REMARKS
GREELEY ARPT   FAIR      31  22  69 E5        29.80F WCI  26
AKRON          FAIR      31  18  58 S12       29.83F WCI  22
BURLINGTON     FAIR      32  25  75 S10       29.88F WCI  24
WRAY           NOT AVBL
STERLING       FAIR      28  23  80 W5        29.84S WCI  23
HOLYOKE        FAIR      28  23  80 SW3       29.87S
FORT MORGAN    FAIR      30  20  68 E7        29.81F WCI  23
$$

COZ086-089-092>099-230700-
...SOUTHEAST COLORADO...

CITY           SKY/WX    TMP DP  RH WIND       PRES   REMARKS
PUEBLO         FAIR      29  22  75 N3        29.82F
LA JUNTA       FAIR      33  20  58 SW3       29.87F
LAMAR          FAIR      29  23  78 S3        29.87F
SPRINGFIELD      N/A     23  18  81 SW8       29.91F WCI  14
$$




USA.gov is the U.S. government's official web portal to all federal, state and local government web resources and services.